Location: North Evanston
(42.0634°N, 87.6976°W)
Time: 22:22:36
(UTC+00:00)

Transit 2A - Pass Details

Date: 16 May 2026
Orbit: 595 x 949 km, 66.7° (Epoch: 5 June)

Event Time Altitude Azimuth Distance (km) Brightness Sun altitude
Rises 05:03:22 0° 337° (NNW) 3,208 10.4 -28.0°
Reaches altitude 10° 05:06:18 10° 352° (N) 2,212 9.4 -28.1°
Maximum altitude 05:10:18 24° 45° (NE) 1,413 7.7 -28.2°
Enters shadow 05:11:23 22° 65° (ENE) 1,462 7.5 -28.3°
Drops below altitude 10° 05:14:02 10° 99° (E) 2,043 - -28.4°
Sets 05:16:36 0° 114° (ESE) 2,905 - -28.4°
